Temperature
26 25 24 25 31 31 29 29 29 28 28 27 26 26 26 26 26 23 21 20 19 19 18 19 19 19 19 19 19 19 18 18 18 18 18 18 18 18 18 18 18 18 18 18 18 18 18 18 17
25 25 26 30 32 30 28 29 29 28 27 26 26 26 26 24 22 21 20 19 19 19 18 18 19 19 19 19 19 18 18 18 18 18 18 18 18 18 18 18 18 18 18 18 18 18 18 18 17
26 26 29 32 31 30 29 29 28 28 27 26 26 25 25 23 21 21 20 19 20 19 18 18 19 19 19 19 18 18 18 18 18 18 18 18 18 18 18 18 18 18 18 18 18 17 17 17 17
26 28 31 32 30 30 29 29 29 28 27 26 27 25 23 21 21 21 19 20 20 19 19 18 19 19 19 19 18 18 18 18 18 18 18 18 18 18 18 18 18 18 18 18 18 17 17 17 17
28 32 33 31 30 30 30 29 29 29 28 27 27 26 23 20 20 20 20 20 20 20 19 18 19 18 18 18 18 18 18 18 18 18 18 18 18 18 18 18 18 18 17 17 17 17 17 17 17
32 34 32 31 30 30 30 29 29 29 27 27 26 25 22 20 20 20 20 20 20 19 19 18 19 19 18 18 18 18 18 18 18 18 18 18 18 18 18 18 18 18 18 17 17 17 17 17 17
33 33 32 31 31 30 30 29 29 29 28 27 26 26 22 20 20 20 19 19 19 19 19 18 18 18 18 18 18 18 18 18 18 18 18 18 18 18 18 18 17 17 17 17 17 17 17 17 17
32 34 32 32 31 31 30 29 29 29 28 26 26 26 24 20 19 19 19 19 19 19 19 18 18 18 18 18 18 18 18 18 18 18 18 18 18 18 18 17 17 17 17 17 17 17 17 17 17
32 34 32 32 31 31 31 30 28 28 27 26 25 25 23 20 20 19 19 19 18 18 18 19 19 18 18 18 18 18 18 18 18 18 18 17 17 17 17 17 17 17 17 17 17 17 17 17 17
33 33 32 32 32 32 31 30 29 28 28 26 24 22 21 20 20 20 20 20 19 18 18 18 18 18 18 18 17 18 17 17 17 17 17 17 17 17 17 17 17 17 17 17 17 17 17 17 17
33 33 33 32 32 31 31 30 29 30 29 28 25 22 21 21 21 21 21 21 20 19 18 18 18 18 18 18 18 18 17 17 17 17 17 17 17 17 17 17 17 17 17 17 17 17 17 17 17
33 33 32 32 31 31 31 30 30 29 28 27 25 23 22 21 21 21 21 20 20 19 18 18 18 18 18 18 18 18 18 18 18 17 17 17 17 17 17 17 17 17 17 17 17 17 17 17 16
33 33 32 31 31 31 30 30 29 28 27 26 24 23 23 22 22 21 20 20 19 19 18 18 18 18 18 18 18 18 18 18 18 17 17 17 17 17 17 17 17 17 17 17 17 17 17 17 17
32 32 32 32 31 31 31 30 29 28 26 25 24 24 23 23 22 21 20 20 19 19 18 18 18 18 18 18 18 18 18 18 18 17 17 17 17 17 17 17 17 17 17 17 17 17 17 17 17
32 33 33 32 31 31 31 31 30 27 26 26 25 24 23 22 22 21 20 20 19 19 19 19 19 18 18 18 18 18 18 18 18 17 17 17 17 17 17 17 17 17 17 17 17 17 17 17 17
33 33 32 32 32 31 32 31 29 27 27 26 25 24 23 22 22 21 21 20 20 19 19 19 18 18 18 18 18 17 17 17 17 17 17 17 17 17 17 17 17 17 17 17 17 17 17 17 17
33 33 32 32 32 32 32 31 29 28 27 27 26 25 23 22 22 21 20 20 20 19 19 19 18 18 18 18 18 17 17 17 17 17 17 17 17 17 17 17 17 17 17 17 17 17 17 17 17
32 32 32 32 32 32 32 31 30 28 28 27 26 25 24 23 22 21 20 20 20 19 19 19 19 18 18 18 18 18 17 18 17 17 17 17 17 17 17 17 17 17 17 17 17 17 17 17 17
32 32 32 32 31 32 31 31 30 29 28 27 26 25 24 23 22 21 20 20 19 19 19 19 19 19 18 18 18 18 18 18 17 18 17 17 17 17 17 17 17 17 17 17 17 17 17 17 17
32 32 32 32 31 31 31 31 30 29 28 27 27 26 25 24 22 21 20 20 19 19 19 19 19 19 18 18 18 18 18 17 17 17 17 17 17 17 17 17 17 17 17 17 17 17 17 17 17
32 32 32 31 31 31 31 31 30 29 28 27 26 26 25 24 23 21 20 20 19 19 19 19 19 19 19 18 18 18 17 17 17 17 17 17 17 17 17 17 17 17 17 17 17 17 17 17 17
31 32 32 31 31 32 31 31 30 30 29 28 27 26 25 24 23 21 20 20 19 19 19 19 19 19 19 18 18 18 17 18 18 17 17 17 17 17 17 17 17 17 17 17 17 17 17 17 17
31 31 31 31 31 31 31 31 31 30 30 29 28 27 25 24 23 21 21 20 20 19 19 19 19 19 18 18 18 18 17 18 18 17 17 17 17 17 17 17 17 17 17 17 17 17 17 17 17
31 31 31 31 32 30 30 30 30 31 30 29 29 27 25 24 23 21 20 20 19 19 19 19 19 19 18 18 18 18 17 18 17 17 17 17 17 17 17 17 17 17 17 17 17 17 17 17 17
31 31 30 30 30 30 30 30 30 30 29 29 28 27 25 24 23 22 21 20 19 19 19 19 18 18 18 18 17 17 17 17 17 17 17 17 17 17 17 17 17 17 17 17 17 17 17 17 17
31 32 30 30 30 31 30 30 30 29 28 28 27 26 25 24 23 22 21 20 20 19 19 19 19 18 18 18 18 17 17 17 17 17 17 17 17 17 17 17 17 17 17 17 17 17 17 17 17
31 31 33 31 31 30 31 30 30 29 29 28 28 27 26 24 23 22 21 21 20 19 19 19 19 18 18 18 18 18 18 17 17 17 17 17 17 17 17 17 17 17 17 17 17 17 17 17 17
31 32 31 31 29 29 30 30 30 29 29 29 28 27 26 24 23 23 22 21 20 20 19 19 19 18 18 18 18 18 18 18 17 17 17 17 17 17 17 17 17 17 17 17 17 17 17 16 16
30 30 31 31 31 30 30 30 31 30 29 29 28 27 26 25 24 23 22 21 20 20 19 19 19 18 18 18 18 18 17 17 17 17 17 17 17 17 17 17 17 17 17 17 17 16 16 16 16
31 31 31 30 29 30 30 30 30 30 29 28 27 26 25 24 23 23 22 21 20 20 19 19 18 18 18 18 18 18 18 17 17 17 17 17 17 17 17 17 17 17 16 16 16 16 16 16 16
Wind_Speed
8 6 5 3 3 11 17 13 11 10 8 8 8 6 8 10 8 10 10 12 13 13 15 14 12 13 13 13 13 14 14 14 13 13 13 13 13 13 14 14 14 15 15 15 15 15 15 15 15
4 4 3 0 9 14 15 12 12 11 9 8 8 8 10 10 9 11 11 12 13 13 14 13 13 13 13 13 13 13 13 13 13 13 13 13 13 13 14 14 15 15 15 14 14 15 15 15 15
4 4 1 7 14 15 14 11 11 10 7 6 6 8 7 8 9 9 12 14 13 12 13 14 12 12 12 12 12 12 13 13 12 12 12 13 13 13 14 14 15 14 14 14 14 14 14 14 14
3 2 3 11 17 15 12 10 8 8 8 7 8 9 8 7 6 11 14 13 13 12 13 15 12 12 12 12 11 11 12 12 12 12 12 13 13 13 13 14 14 14 14 14 14 13 14 14 14
3 2 10 15 16 12 10 8 5 6 6 7 8 11 9 7 10 14 14 12 12 11 12 15 12 12 11 11 11 11 11 11 12 12 12 12 13 13 13 13 13 13 13 13 13 13 13 13 13
0 4 11 14 14 10 9 7 7 8 9 9 9 11 8 8 12 13 12 11 11 11 12 14 12 11 11 10 10 10 10 10 11 11 11 12 12 12 12 12 13 12 12 12 12 12 13 13 13
5 8 12 13 12 11 8 6 7 8 8 7 6 9 9 10 11 12 11 10 9 9 10 11 13 12 11 10 9 9 10 10 10 10 11 11 11 11 11 11 12 12 12 12 12 12 12 12 12
3 5 11 12 11 11 8 6 6 6 8 7 4 6 9 13 12 12 11 10 9 8 8 9 9 9 10 11 10 9 9 9 10 10 10 11 11 11 10 12 11 11 11 12 11 11 11 11 11
2 6 11 11 9 8 7 7 6 6 8 6 5 7 13 17 15 13 12 10 9 8 6 7 8 8 7 9 11 10 10 9 9 10 9 7 8 10 10 12 11 11 11 11 11 11 11 10 11
2 8 11 8 6 6 6 5 6 6 7 8 9 12 16 16 15 13 12 12 11 10 8 6 6 7 7 6 8 7 7 7 6 7 7 6 6 6 9 12 9 10 10 10 9 9 10 7 8
5 8 7 6 5 4 5 5 4 4 5 6 10 15 16 15 13 12 10 10 10 10 8 7 5 4 4 5 5 5 5 6 6 6 5 5 5 6 7 8 9 8 8 8 9 8 5 5 4
4 6 5 4 3 3 4 5 5 4 7 7 11 15 16 15 12 11 9 8 8 8 8 7 6 5 4 3 4 4 4 5 5 6 5 5 4 4 4 4 6 6 5 4 4 4 4 4 4
4 4 4 3 3 3 4 5 5 6 7 9 12 14 14 12 11 9 8 7 7 8 8 7 7 5 5 4 3 4 4 4 5 5 5 4 4 4 4 4 3 3 4 5 3 3 4 3 3
3 2 3 4 4 4 4 4 3 5 7 10 12 12 12 11 11 10 9 8 7 7 8 8 8 8 6 5 4 4 5 4 4 4 5 5 4 4 4 4 3 3 3 3 3 3 3 2 2
2 2 4 4 3 3 4 4 4 5 8 9 10 10 10 9 9 9 9 9 9 8 8 8 9 8 7 6 6 5 5 5 4 4 5 5 5 4 4 3 4 3 3 3 3 3 3 3 3
4 4 3 4 1 2 4 4 6 6 8 8 8 9 9 8 8 8 8 8 8 8 8 8 8 8 7 6 5 4 4 4 4 4 5 5 5 5 4 3 3 3 3 3 3 3 3 2 2
5 2 2 4 2 1 2 3 6 6 7 7 8 8 8 8 8 7 8 8 8 8 8 8 8 8 7 7 6 5 5 5 4 4 5 5 6 6 5 4 3 4 3 3 4 3 3 3 3
3 2 2 2 1 1 1 2 4 5 6 6 7 7 7 7 7 7 7 7 7 7 7 7 7 7 7 6 5 4 5 5 5 5 5 6 6 7 6 5 4 4 3 4 3 3 3 3 3
2 2 1 2 1 2 1 1 3 5 5 6 6 6 6 5 6 6 7 7 8 7 7 7 7 7 6 6 6 5 5 5 5 5 6 7 7 6 6 4 4 4 4 4 5 4 5 4 3
5 4 2 3 1 2 1 1 3 4 4 4 5 6 6 6 6 6 7 8 8 8 7 7 8 8 8 6 5 4 3 4 5 5 5 7 7 7 7 5 5 5 4 5 5 5 5 4 4
6 5 2 1 2 4 3 4 5 5 4 4 4 4 5 6 7 7 7 7 8 7 8 7 7 7 7 6 5 4 3 4 4 5 5 7 7 8 7 6 6 5 6 6 6 6 7 5 5
6 2 2 3 5 1 3 1 5 4 4 5 5 5 5 6 6 6 7 7 7 7 7 7 7 7 7 7 6 6 5 5 4 4 4 5 6 7 7 7 7 6 6 5 7 6 6 6 5
1 2 3 4 4 4 2 4 4 4 3 4 4 5 6 6 6 6 6 6 6 6 6 6 6 7 7 7 7 6 6 5 4 4 5 5 5 6 7 7 6 7 7 6 6 5 7 6 6
5 5 4 6 6 4 1 4 2 3 2 3 4 5 6 6 6 6 5 5 5 5 6 6 7 6 6 6 6 7 6 5 5 5 4 5 4 5 6 6 6 7 6 6 6 6 8 7 7
8 7 6 6 6 2 2 3 2 4 2 2 4 5 6 6 7 7 6 6 5 6 6 6 6 6 6 6 6 6 6 5 5 5 4 4 4 4 4 5 5 5 5 6 5 6 6 6 6
10 10 7 5 4 3 4 2 2 3 3 4 5 6 7 7 7 7 7 6 5 5 5 5 5 5 6 6 6 5 5 4 4 4 3 4 3 3 3 5 5 5 5 5 4 4 5 4 5
9 9 6 6 4 4 3 2 3 4 5 6 6 7 7 7 7 7 6 6 6 5 5 5 5 5 5 5 5 5 4 4 3 3 3 3 3 3 4 4 4 4 4 3 3 3 3 4 4
5 7 6 7 5 6 4 5 3 5 5 5 6 6 7 7 7 7 6 6 5 5 5 5 5 4 4 4 4 4 4 3 3 3 2 2 3 2 3 3 3 3 3 3 3 3 3 3 3
8 8 7 7 6 6 4 2 3 4 4 5 5 6 6 7 7 7 6 5 5 5 5 5 5 5 4 4 3 3 3 3 2 2 2 2 2 2 2 2 2 2 2 2 2 2 2 3 2
11 10 10 8 6 6 6 2 5 3 3 4 5 6 7 7 7 7 7 6 5 5 5 5 5 5 5 4 4 3 3 2 2 2 1 1 1 1 1 1 1 1 1 1 1 1 1 1 1
Wind_Direction
190 190 216 234 100 72 67 67 70 76 73 72 70 61 61 48 48 89 114 123 125 125 123 125 116 113 110 109 109 110 109 109 109 109 110 110 110 110 109 108 108 106 105 104 103 103 104 104 103
180 192 226 67 70 74 68 65 67 68 86 93 80 76 74 67 72 106 124 128 132 127 127 121 118 116 113 111 110 109 109 108 108 108 108 108 108 109 109 107 106 108 107 105 104 105 105 103 102
191 231 310 67 63 67 72 70 78 85 89 91 86 67 66 82 101 117 128 137 134 124 121 117 123 118 115 113 111 110 108 108 108 107 107 107 107 107 107 107 107 107 107 106 105 107 106 103 103
222 204 89 73 72 68 74 80 89 97 85 83 97 89 80 79 104 124 134 140 132 131 129 122 126 120 118 114 113 111 109 109 109 106 105 106 106 106 107 106 106 106 105 106 106 107 108 108 108
243 85 84 77 74 74 72 73 78 82 85 92 97 100 91 82 111 127 138 139 135 131 125 126 127 122 120 118 115 112 111 108 108 107 105 106 106 107 107 106 107 107 106 105 106 109 110 109 110
130 77 76 76 77 76 77 84 88 88 97 101 105 104 93 115 127 135 139 140 135 131 128 126 129 125 123 121 117 113 111 110 108 108 107 106 105 105 106 107 109 109 108 108 109 110 111 112 112
47 69 74 76 80 79 75 84 89 98 103 99 106 107 119 133 135 139 139 140 136 134 133 137 141 137 131 123 120 116 112 111 111 111 110 109 107 107 108 109 111 112 112 111 110 110 113 116 116
9 83 79 74 74 77 87 95 88 88 93 105 107 117 140 145 144 143 143 143 138 140 139 140 142 140 146 138 128 121 117 115 115 113 113 118 120 116 121 120 112 114 114 112 113 112 114 118 119
310 71 70 66 68 81 98 106 98 99 111 105 85 89 126 141 148 150 150 150 150 150 151 149 142 146 147 140 136 140 134 130 138 129 130 149 134 125 132 106 112 114 114 114 118 117 119 127 127
24 67 65 59 64 78 96 103 120 128 122 117 110 110 129 145 156 160 161 162 163 161 161 157 155 153 154 143 141 150 145 139 141 131 138 133 116 113 112 113 114 115 120 124 124 132 150 165 135
48 64 66 67 68 81 105 113 125 121 101 125 143 144 149 155 163 166 166 167 164 163 164 164 160 160 156 149 151 143 136 135 139 129 134 127 135 135 132 136 138 138 151 139 142 166 146 124 107
68 65 58 62 76 93 100 113 107 74 74 104 135 149 155 162 167 169 167 168 163 163 165 164 161 166 173 158 148 157 153 151 146 142 158 148 142 142 132 144 142 153 140 130 142 129 118 121 126
75 57 57 70 99 108 117 110 98 91 103 117 132 148 158 164 164 166 164 165 171 171 171 170 171 176 177 168 181 161 163 164 154 152 160 163 161 154 145 138 147 152 139 148 144 135 132 138 140
54 72 85 81 102 129 131 118 119 104 124 132 143 153 160 164 168 165 170 176 180 180 177 179 182 187 185 182 187 175 179 173 165 170 170 188 175 161 167 162 165 162 165 139 156 151 162 158 136
177 157 128 88 102 131 165 133 114 131 143 146 152 156 160 168 173 177 182 186 185 187 186 187 188 190 191 193 195 189 192 180 180 172 183 197 192 175 190 173 180 172 170 163 187 171 182 186 174
208 211 154 101 86 155 246 95 105 146 159 156 157 160 167 174 183 184 187 191 187 188 189 195 196 186 192 200 205 203 199 192 193 187 193 203 201 197 207 196 184 177 192 190 191 206 202 190 194
208 202 121 124 93 201 248 89 115 152 167 165 165 166 171 175 186 187 188 186 185 187 189 193 200 193 196 200 201 205 203 212 215 205 210 205 209 205 211 207 188 204 203 211 220 192 212 199 202
188 190 144 117 91 236 213 110 131 156 172 170 172 172 175 180 183 182 183 180 181 185 187 193 197 193 196 196 198 206 213 213 216 217 215 215 215 209 215 207 200 220 214 220 226 224 221 226 223
243 234 176 81 57 256 204 140 146 161 172 174 178 177 178 181 172 174 180 182 181 183 188 191 190 186 193 194 197 200 210 218 220 221 215 215 220 214 220 226 196 227 223 227 225 221 212 221 218
220 225 186 134 91 269 239 175 143 162 178 186 186 182 183 175 168 170 178 182 186 185 189 191 192 191 198 195 193 200 210 222 224 226 216 219 217 216 213 220 222 219 229 227 229 227 237 230 215
218 238 231 180 178 202 252 190 158 154 169 179 187 183 179 175 170 169 178 182 184 186 190 193 193 193 199 195 192 198 202 222 221 215 216 219 220 219 227 219 230 227 234 230 230 228 230 236 229
209 217 234 219 241 202 284 276 136 151 163 171 177 177 174 169 163 162 170 179 184 185 186 189 188 190 192 192 200 206 213 216 223 221 217 216 222 225 221 226 229 236 241 238 239 231 235 238 242
183 150 205 226 244 259 249 287 116 142 142 144 160 168 164 161 160 162 165 172 178 179 181 182 184 188 191 194 201 213 221 222 220 221 217 227 220 221 224 229 232 231 238 240 245 240 239 238 244
157 169 182 222 239 241 303 287 114 98 88 118 133 148 156 157 158 159 159 160 167 171 177 179 183 189 191 197 203 214 220 226 227 226 229 226 221 223 224 230 232 233 236 240 241 239 234 242 250
202 214 216 219 223 209 126 264 66 68 86 115 130 138 148 154 157 158 161 163 166 173 176 178 182 187 190 196 206 213 218 224 229 237 234 238 235 230 228 237 233 233 231 236 241 238 244 242 245
210 228 241 252 239 181 178 233 90 95 119 135 133 133 140 147 154 156 160 163 166 169 174 176 177 181 186 193 201 209 215 225 231 237 253 238 240 244 241 234 231 231 232 237 236 244 244 245 242
204 226 250 251 263 253 187 161 145 138 144 146 141 139 139 142 149 154 158 161 164 167 172 179 174 177 186 192 193 197 205 224 235 235 242 248 249 242 237 239 234 228 232 242 242 242 246 244 242
242 211 218 241 244 243 208 209 177 160 161 158 156 150 143 147 151 152 154 160 161 161 161 169 171 176 184 192 196 188 192 200 219 240 249 260 256 253 246 243 234 228 224 227 233 232 230 231 240
186 202 219 233 250 259 231 176 99 157 158 161 162 157 152 154 151 150 149 151 157 157 158 165 163 164 175 183 185 183 184 185 200 223 242 253 262 247 243 244 233 220 219 224 229 237 233 233 238
212 210 206 219 222 251 270 138 105 136 142 150 152 153 153 151 149 148 146 145 148 152 154 157 164 166 170 171 173 172 176 179 196 207 224 244 254 236 222 219 201 207 199 201 210 237 236 240 245
Height
1500 1499 1499 1501 1495 1498 1506 1506 1504 1507 1511 1515 1517 1517 1518 1521 1523 1535 1540 1540 1542 1544 1544 1544 1545 1546 1547 1548 1549 1549 1550 1550 1551 1551 1552 1552 1553 1553 1554 1555 1555 1555 1556 1556 1557 1558 1558 1559 1559
1502 1501 1502 1498 1495 1509 1515 1508 1510 1513 1517 1519 1520 1521 1522 1528 1533 1537 1540 1542 1545 1546 1547 1547 1547 1548 1549 1550 1551 1552 1552 1553 1553 1554 1554 1555 1555 1556 1556 1557 1557 1558 1558 1558 1559 1560 1560 1561 1561
1503 1503 1503 1495 1502 1511 1516 1512 1514 1517 1519 1520 1522 1524 1527 1533 1537 1540 1542 1544 1547 1548 1549 1548 1549 1551 1552 1553 1553 1554 1555 1555 1556 1556 1557 1557 1557 1558 1558 1559 1559 1560 1560 1561 1561 1562 1562 1563 1564
1506 1506 1501 1499 1509 1511 1512 1513 1515 1517 1521 1522 1523 1528 1533 1538 1540 1542 1544 1546 1549 1550 1552 1550 1551 1553 1554 1555 1556 1556 1557 1557 1558 1558 1559 1559 1560 1560 1561 1561 1562 1562 1562 1563 1563 1564 1565 1565 1566
1507 1502 1500 1506 1511 1512 1513 1516 1517 1518 1521 1524 1525 1530 1537 1541 1542 1544 1546 1549 1551 1552 1554 1553 1553 1555 1556 1557 1557 1558 1559 1559 1560 1560 1561 1561 1562 1562 1563 1563 1564 1564 1565 1565 1566 1567 1567 1568 1568
1506 1499 1505 1513 1514 1513 1515 1518 1519 1520 1524 1527 1528 1532 1540 1543 1545 1547 1549 1551 1553 1554 1555 1554 1555 1556 1557 1558 1559 1560 1560 1561 1562 1562 1563 1563 1564 1564 1565 1565 1566 1567 1567 1568 1568 1569 1570 1570 1570
1506 1501 1508 1510 1514 1515 1517 1519 1519 1521 1525 1528 1531 1533 1541 1545 1546 1548 1550 1552 1554 1556 1557 1557 1558 1558 1559 1560 1561 1561 1562 1563 1563 1564 1564 1565 1565 1566 1567 1567 1568 1569 1569 1570 1571 1571 1572 1572 1573
1508 1502 1507 1510 1513 1517 1518 1520 1523 1523 1527 1532 1533 1534 1540 1545 1546 1549 1551 1553 1555 1556 1558 1559 1560 1561 1562 1562 1562 1563 1564 1564 1565 1566 1566 1567 1567 1568 1569 1569 1570 1571 1571 1572 1573 1573 1574 1574 1575
1509 1504 1511 1512 1515 1516 1518 1521 1525 1527 1530 1533 1535 1536 1540 1543 1547 1549 1552 1554 1555 1556 1558 1560 1562 1562 1564 1565 1564 1564 1565 1566 1567 1567 1568 1569 1571 1571 1571 1571 1572 1573 1573 1574 1575 1575 1576 1576 1577
1507 1508 1514 1513 1514 1515 1519 1521 1525 1527 1529 1533 1537 1540 1541 1544 1547 1550 1552 1554 1556 1557 1559 1560 1562 1563 1565 1566 1566 1567 1568 1567 1568 1569 1570 1571 1571 1573 1573 1573 1573 1574 1575 1576 1576 1577 1578 1579 1580
1510 1511 1513 1515 1517 1518 1519 1522 1525 1524 1527 1532 1536 1540 1543 1546 1548 1551 1553 1555 1557 1558 1559 1560 1562 1563 1565 1566 1567 1568 1568 1568 1569 1570 1570 1572 1573 1574 1575 1575 1576 1576 1577 1578 1578 1579 1581 1581 1581
1513 1515 1516 1517 1519 1520 1520 1522 1525 1527 1530 1533 1536 1540 1543 1546 1549 1551 1553 1555 1557 1558 1559 1560 1561 1562 1564 1566 1567 1568 1569 1570 1570 1570 1571 1573 1574 1575 1576 1576 1577 1578 1579 1579 1580 1580 1581 1581 1582
1514 1517 1518 1519 1519 1521 1522 1523 1526 1530 1533 1535 1538 1541 1543 1546 1549 1552 1553 1555 1556 1558 1559 1560 1561 1562 1563 1564 1566 1568 1569 1570 1570 1571 1571 1572 1574 1575 1576 1576 1577 1579 1579 1580 1580 1581 1581 1582 1582
1518 1517 1518 1519 1520 1521 1522 1524 1527 1531 1534 1537 1539 1541 1544 1547 1549 1551 1552 1554 1555 1557 1558 1559 1560 1561 1562 1564 1565 1567 1568 1569 1570 1571 1572 1572 1574 1575 1576 1576 1577 1579 1580 1581 1581 1581 1581 1582 1583
1518 1516 1517 1519 1520 1521 1522 1524 1527 1532 1535 1537 1539 1542 1544 1547 1549 1550 1551 1553 1554 1556 1557 1558 1559 1560 1561 1563 1565 1567 1568 1569 1570 1571 1571 1572 1574 1574 1575 1577 1577 1578 1579 1579 1580 1581 1582 1582 1582
1515 1514 1518 1519 1519 1521 1521 1525 1528 1531 1534 1536 1539 1542 1544 1546 1548 1549 1551 1552 1553 1554 1555 1557 1559 1560 1561 1562 1563 1565 1567 1568 1569 1570 1571 1572 1573 1574 1574 1576 1577 1578 1579 1580 1580 1581 1582 1582 1582
1514 1517 1519 1520 1519 1519 1519 1523 1528 1531 1533 1535 1538 1541 1543 1545 1547 1548 1549 1551 1552 1553 1554 1555 1557 1558 1560 1561 1562 1564 1565 1566 1568 1569 1570 1571 1572 1573 1574 1575 1576 1577 1578 1579 1579 1580 1580 1581 1581
1520 1518 1520 1520 1519 1518 1519 1522 1526 1529 1531 1534 1537 1540 1542 1544 1546 1547 1548 1549 1550 1552 1553 1554 1556 1557 1558 1560 1561 1562 1564 1565 1566 1567 1568 1570 1571 1572 1574 1574 1575 1576 1577 1577 1578 1578 1579 1580 1580
1516 1518 1520 1520 1519 1519 1520 1522 1524 1528 1530 1533 1536 1539 1541 1543 1545 1546 1547 1548 1549 1550 1551 1553 1554 1555 1557 1558 1559 1561 1562 1564 1565 1566 1567 1568 1569 1571 1572 1574 1574 1574 1575 1576 1577 1577 1578 1579 1579
1518 1520 1520 1520 1520 1520 1520 1522 1523 1527 1529 1532 1534 1537 1540 1542 1544 1545 1546 1547 1548 1549 1550 1551 1552 1553 1555 1556 1557 1559 1561 1562 1563 1564 1565 1566 1567 1569 1571 1571 1572 1573 1573 1574 1574 1575 1576 1577 1578
1518 1519 1519 1521 1521 1519 1520 1522 1523 1525 1529 1532 1534 1536 1538 1540 1542 1544 1545 1546 1546 1547 1548 1549 1550 1552 1553 1554 1556 1557 1558 1560 1562 1562 1563 1564 1566 1567 1568 1569 1570 1571 1572 1572 1572 1573 1574 1575 1576
1521 1516 1518 1521 1522 1520 1523 1527 1522 1522 1525 1528 1531 1534 1536 1539 1541 1542 1544 1545 1545 1546 1547 1548 1549 1550 1552 1553 1554 1556 1557 1559 1560 1561 1562 1563 1564 1565 1566 1567 1568 1568 1569 1570 1570 1571 1571 1572 1573
1517 1517 1518 1519 1520 1522 1520 1524 1522 1519 1523 1524 1528 1531 1535 1537 1540 1541 1542 1543 1545 1546 1546 1547 1548 1549 1550 1551 1553 1554 1556 1557 1558 1559 1560 1561 1562 1562 1563 1564 1565 1565 1566 1567 1567 1568 1568 1569 1570
1519 1519 1520 1518 1517 1532 1526 1528 1527 1518 1522 1523 1526 1530 1534 1536 1539 1540 1542 1543 1544 1545 1546 1546 1547 1548 1549 1550 1551 1552 1554 1555 1556 1557 1558 1558 1559 1560 1561 1561 1562 1563 1564 1564 1564 1565 1565 1566 1567
1517 1522 1530 1533 1532 1531 1525 1527 1526 1520 1522 1523 1526 1530 1533 1535 1538 1539 1541 1542 1543 1544 1545 1545 1546 1547 1548 1549 1550 1551 1552 1553 1554 1555 1556 1556 1557 1558 1558 1559 1559 1560 1560 1561 1561 1561 1562 1563 1563
1515 1515 1531 1540 1536 1527 1526 1526 1520 1520 1523 1525 1527 1529 1532 1535 1537 1539 1540 1541 1542 1543 1544 1545 1546 1547 1547 1548 1549 1550 1551 1552 1553 1553 1554 1555 1555 1556 1556 1556 1556 1557 1558 1558 1559 1559 1559 1560 1560
1515 1513 1508 1519 1525 1529 1523 1522 1519 1520 1522 1524 1526 1529 1532 1534 1536 1538 1540 1541 1542 1543 1544 1545 1545 1546 1547 1548 1548 1549 1549 1550 1551 1552 1552 1553 1553 1553 1553 1553 1554 1555 1555 1555 1556 1556 1556 1557 1557
1510 1509 1516 1520 1537 1538 1530 1525 1521 1520 1521 1522 1525 1528 1531 1534 1536 1538 1540 1541 1542 1543 1543 1544 1545 1545 1546 1547 1548 1549 1549 1549 1550 1550 1551 1551 1551 1551 1551 1551 1552 1552 1553 1553 1553 1553 1554 1554 1554
1516 1516 1514 1516 1518 1531 1535 1527 1511 1516 1518 1521 1524 1527 1530 1533 1535 1537 1539 1540 1542 1542 1543 1543 1544 1544 1546 1547 1547 1548 1548 1549 1549 1549 1549 1549 1549 1549 1549 1549 1550 1550 1550 1551 1551 1551 1551 1551 1551
1505 1507 1513 1523 1528 1524 1523 1523 1512 1515 1518 1521 1524 1527 1530 1533 1535 1537 1539 1540 1541 1541 1542 1543 1543 1544 1545 1545 1546 1547 1547 1547 1548 1548 1548 1548 1547 1547 1547 1548 1548 1548 1548 1548 1549 1549 1549 1549 1549